{"data":{"norad_id":52832,"intl_designator":"2022-062C","name":"STARLINK-4083","alt_names":[],"object_type":"PAYLOAD","status":"ACTIVE","operator":null,"country":"US","launch_date":"2022-06-17","launch_site_code":"AFETR","launch_vehicle":null,"mission":null,"orbit_class":"UNKNOWN","rcs_meters":null,"size_class":null,"mass_kg":null,"dimensions":null,"purposes":["comms"],"wikipedia_slug":null,"has_3d_model":false,"image_url":null,"decayed_at":null,"tle_current":{"epoch":"2026-09-19T13:49:05.334816Z","epoch_age_seconds":146254,"freshness":"FRESH","line1":"1 52832U 22062C   26262.57575619 -.00000358  00000+0  21454-6 0  9993","line2":"2 52832  53.1589 233.1102 0001158  82.1294 277.9839 15.31694736235196","mean_motion":15.31694736,"eccentricity":0.0001158,"inclination_deg":53.1589,"raan_deg":233.1102,"arg_perigee_deg":82.1294,"mean_anomaly_deg":277.9839,"bstar":2.1454e-7,"rev_number":23519,"period_min":94.013511057728,"perigee_km":469.96258520752,"apogee_km":471.54878875382,"semimajor_km":6848.8926869807,"source":"CELESTRAK","updated_at":"2026-09-20T09:00:40.110871Z"}}}